#timestamp,LO_Frequency,Hit 
1502661615.8,286047003.6,N
1502661635.7,286047002.3,N
1502661655.5,286047000.0,N
1502661675.3,286047002.0,N
1502661695.1,286047000.2,N
1502661715.9,286046999.7,N
1502661735.7,286047001.9,N
1502661755.5,286046999.7,N
1502661775.4,286046999.7,N
1502661795.2,286046999.9,N
1502661815.0,286047002.0,N
1502661815.9,286047002.0,N
1502661835.8,286047002.5,N
1502661855.6,286046997.4,N
1502661875.4,286046998.0,N
1502661895.3,286046996.8,N
1502661915.1,286047000.9,N
1502661916.0,286047000.9,N
1502661935.8,286047002.3,N
1502661955.7,286047002.8,N
1502661975.5,286047003.8,N
1502661995.3,286047004.4,N
1502662015.2,286047001.6,N
1502662035.9,286047004.1,N
1502662055.7,286047005.9,N
1502662075.5,286047005.9,N
1502662095.4,286047003.7,N
1502662115.2,286047003.9,N
1502662135.0,286047002.6,N
1502662135.9,286047002.6,N
1502662155.8,286046999.8,N
1502662175.6,286047002.6,N
1502662195.4,286047001.4,N
1502662215.3,286047000.2,N
1502662235.1,286047000.2,N
1502662255.8,286047000.1,N
1502662275.7,286046998.8,N
1502662295.5,286046997.4,N
1502662315.3,286046997.8,N
1502662335.2,286046997.8,N
1502662355.9,286046997.7,N
1502662375.7,286046999.3,N
1502662395.6,286046996.6,N
1502662415.4,286046996.6,N
1502662435.2,286046997.8,N
1502662455.0,286046999.1,N
1502662455.9,286046999.1,N
1502662475.8,286047002.3,N
1502662495.6,286047005.9,N
1502662515.4,286047005.8,N
1502662535.3,286047003.8,N
1502662555.1,286047004.3,N
1502662575.8,286047004.2,N
1502662595.7,286047003.4,N
1502662615.5,286047003.9,N
1502662635.3,286047005.6,N
1502662655.2,286047004.2,N
1502662675.9,286047001.5,N
1502662695.7,286047002.1,N
1502662715.6,286047001.5,N
1502662735.4,286047001.8,N
1502662755.2,286047003.1,N
1502662775.0,286047004.8,N
1502662776.0,286047004.8,N
1502662795.8,286047007.3,N
1502662815.6,286047008.5,N
1502662835.4,286047007.1,N
1502662855.3,286047003.0,N
1502662875.1,286047005.8,N
1502662895.8,286047003.2,N
1502662915.7,286047001.5,N
1502662935.5,286046998.3,N
1502662955.3,286047000.1,N
1502662975.2,286047004.9,N
1502662995.9,286047006.2,N
1502663015.7,286047005.3,N
1502663035.6,286047006.6,N
1502663055.4,286047010.7,P
1502663075.2,286047003.3,N
1502663095.1,286047005.7,N
1502663096.0,286047005.7,N
1502663115.8,286047004.6,N
1502663135.6,286047002.5,N
1502663155.5,286047000.8,N
1502663175.3,286047001.7,N
1502663195.1,286047001.6,N
1502663215.8,286047002.1,N
1502663235.7,286047004.0,N
1502663255.5,286047002.6,N
1502663275.3,286046999.8,N
1502663295.2,286047000.4,N
1502663315.9,286047005.5,N
1502663335.7,286047005.4,N
1502663355.6,286047004.4,N
1502663375.4,286047005.8,N
1502663395.2,286047003.0,N
1502663415.1,286046999.7,N
1502663416.0,286046999.7,N
1502663435.8,286047000.2,N
1502663455.6,286047000.6,N
1502663475.5,286047000.3,N
1502663495.3,286047001.0,N
1502663515.1,286047001.2,N
1502663535.8,286046997.6,N
1502663555.7,286046993.5,N
1502663575.5,286046996.1,N
1502663595.3,286046997.1,N
1502663615.2,286046995.2,N
1502663635.0,286046993.7,N
1502663635.9,286046993.7,N
1502663655.7,286046995.6,N
1502663675.6,286046996.1,N
1502663695.4,286046996.6,N
1502663715.2,286046997.0,N
1502663735.1,286046999.6,N
1502663736.0,286046999.6,N
1502663755.8,286046996.8,N
1502663775.6,286046997.4,N
1502663795.5,286046993.6,N
1502663815.3,286046992.4,N
1502663835.1,286046990.1,N
1502663855.9,286046992.1,N
1502663875.7,286046995.3,N
1502663895.5,286046997.7,N
1502663915.4,286046997.0,N
1502663935.2,286046999.1,N
1502663955.0,286046997.2,N
1502663955.9,286046997.2,N
1502663975.8,286046999.1,N
1502663995.6,286046998.7,N
1502664015.4,286047000.7,N
1502664035.2,286046999.9,N
1502664055.1,286047002.5,N
1502664056.0,286047002.5,N
1502664075.8,286047002.6,N
1502664095.6,286047004.2,N
1502664115.5,286047000.1,N
1502664135.3,286047000.4,N
1502664155.1,286047000.4,N
1502664175.9,286047000.6,N
1502664195.7,286047003.7,N
1502664215.5,286047003.3,N
1502664235.4,286047003.1,N
1502664255.2,286047002.0,N
1502664275.0,286047003.0,N
1502664275.9,286047003.0,N
1502664295.8,286047005.4,N
1502664315.6,286047004.0,N
1502664335.4,286047004.0,N
1502664355.3,286047005.2,N
1502664375.1,286047007.0,N
1502664376.0,286047007.0,N
1502664395.8,286047004.9,N
1502664415.7,286047007.2,N
1502664435.5,286047006.4,N
1502664455.3,286047009.0,P
1502664475.2,286047003.3,N
1502664495.9,286047001.3,N
1502664515.7,286047001.8,N
1502664535.6,286047002.1,N
1502664555.4,286047001.4,N
1502664575.2,286047005.5,N
1502664595.0,286047001.3,N
1502664595.9,286047001.3,N
1502664615.8,286047004.1,N
1502664635.6,286047001.3,N
1502664655.4,286047004.3,N
1502664675.3,286047003.7,N
1502664695.1,286047003.6,N
1502664715.8,286047004.1,N
1502664735.7,286047004.0,N
1502664755.5,286047002.8,N
1502664775.3,286047003.6,N
1502664795.2,286047003.9,N
1502664815.9,286047001.7,N
1502664835.7,286047001.5,N
1502664855.6,286047000.0,N
1502664875.4,286047002.0,N
1502664895.2,286047005.0,N
1502664915.0,286047003.1,N
1502664916.0,286047003.1,N
1502664935.8,286047001.5,N
1502664955.6,286047004.6,N
1502664975.5,286047006.0,P
1502664995.3,286047005.4,P
1502665015.1,286047006.7,P
1502665035.9,286047004.8,P
1502665055.7,286046997.2,P
1502665075.5,286046996.2,N
1502665095.4,286046992.2,N
1502665115.2,286046994.0,N
1502665135.0,286046995.9,N
1502665135.9,286046995.9,N
1502665155.8,286046994.3,N
1502665175.6,286046995.7,N
1502665195.4,286046995.2,N
